DW5444 Weather Reports


time (UTC)temp
F
wind
direction
speed
knots
gust
knots
rain 1hr
in
rain 24hr
in
rain mn
in
humidity
%
barometer
mb
20260831050039 54 54 0.0 1.7 0.00 0.00 0.00 40 1015.2
20260831044631 54 30 0.0 1.7 0.00 0.00 0.00 35 1015.2
20260831043040 54 72 1.7 2.6 0.00 0.00 0.00 33 1015.3
20260831041539 56 86 2.6 3.5 0.00 0.00 0.00 31 1015.3
20260831040036 57 85 1.7 3.5 0.00 0.00 0.00 30 1015.4
20260831034535 56 86 2.6 3.5 0.00 0.00 0.00 30 1015.3
20260831033051 57 107 0.0 1.7 0.00 0.00 0.00 28 1015.2
20260831031537 57 83 0.0 1.7 0.00 0.00 0.00 28 1015.0
20260831030033 59 91 0.9 3.5 0.00 0.00 0.00 27 1014.9
20260831024533 61 87 0.0 2.6 0.00 0.00 0.00 26 1014.8
20260831023032 66 19 0.0 1.7 0.00 0.00 0.00 23 1014.7
20260831021532 68 344 0.9 2.6 0.00 0.00 0.00 21 1014.7
20260831020031 69 308 0.9 3.5 0.00 0.00 0.00 22 1014.7
20260831014529 70 324 1.7 3.5 0.00 0.00 0.00 23 1014.7
20260831013029 71 23 1.7 4.3 0.00 0.00 0.00 23 1014.7
20260831011528 71 305 3.5 6.1 0.00 0.00 0.00 24 1014.8
20260831010039 71 279 3.5 8.7 0.00 0.00 0.00 25 1014.9
20260831004525 72 281 0.9 4.3 0.00 0.00 0.00 24 1014.9
20260831003024 72 298 5.2 7.8 0.00 0.00 0.00 24 1015.0
20260831001525 72 347 0.9 7.0 0.00 0.00 0.00 25 1015.0
20260831000023 72 301 4.3 7.8 0.00 0.00 0.00 25 1015.2
20260830234520 72 237 5.2 12.2 0.00 0.00 0.00 25 1015.2
20260830233018 72 251 6.1 9.6 0.00 0.00 0.00 26 1015.4
20260830231520 72 301 4.3 10.4 0.00 0.00 0.00 26 1015.6
20260830230015 72 291 7.8 13.0 0.00 0.00 0.00 26 1015.6
20260830224515 72 268 7.8 12.2 0.00 0.00 0.00 25 1015.7
20260830223013 72 270 4.3 12.2 0.00 0.00 0.00 25 1015.7
20260830221510 72 279 6.1 9.6 0.00 0.00 0.00 25 1015.8
20260830220008 71 284 4.3 11.3 0.00 0.00 0.00 26 1016.0
20260830214505 71 227 5.2 13.9 0.00 0.00 0.00 27 1016.4
20260830213002 70 272 2.6 10.4 0.00 0.00 0.00 28 1016.4
20260830211502 70 260 6.1 12.2 0.00 0.00 0.00 29 1016.5
20260830210059 70 270 6.1 14.8 0.00 0.00 0.00 30 1016.7
20260830204559 69 256 10.4 14.8 0.00 0.00 0.00 30 1016.8
20260830203055 69 265 5.2 13.0 0.00 0.00 0.00 31 1016.9
20260830201557 69 278 7.0 12.2 0.00 0.00 0.00 31 1017.0
20260830200051 68 270 9.6 14.8 0.00 0.00 0.00 33 1017.1
20260830194549 67 241 7.8 16.5 0.00 0.00 0.00 34 1017.3
20260830193045 67 211 6.1 13.9 0.00 0.00 0.00 35 1017.4
20260830191543 65 220 4.3 11.3 0.00 0.00 0.00 36 1017.6
20260830190042 66 249 6.1 12.2 0.00 0.00 0.00 36 1017.6
20260830184542 65 240 4.3 9.6 0.00 0.00 0.00 37 1018.1
20260830183036 63 257 7.0 11.3 0.00 0.00 0.00 38 1018.1
20260830181539 63 246 7.8 16.5 0.00 0.00 0.00 40 1018.2
20260830180033 62 235 6.1 13.9 0.00 0.00 0.00 42 1018.2
20260830174529 61 249 7.8 12.2 0.00 0.00 0.00 43 1018.2
20260830173027 61 247 7.8 12.2 0.00 0.00 0.00 44 1018.2
20260830171525 60 279 6.1 12.2 0.00 0.00 0.00 47 1018.3
20260830170023 59 258 7.0 12.2 0.00 0.00 0.00 48 1018.4
20260830164522 59 264 9.6 13.0 0.00 0.00 0.00 48 1018.5
20260830163121 59 281 8.7 13.0 0.00 0.00 0.00 50 1018.5
20260830161518 58 239 7.8 11.3 0.00 0.00 0.00 52 1018.5
20260830160020 58 265 5.2 12.2 0.00 0.00 0.00 54 1018.5
20260830154513 57 229 6.1 11.3 0.00 0.00 0.00 55 1018.5
20260830153009 56 151 4.3 7.8 0.00 0.00 0.00 56 1018.5
20260830151506 55 154 4.3 8.7 0.00 0.00 0.00 58 1018.4
20260830150004 53 109 3.5 7.8 0.00 0.00 0.00 61 1018.4
20260830144558 52 138 3.5 6.1 0.00 0.00 0.00 64 1018.5
20260830143055 51 154 2.6 4.3 0.00 0.00 0.00 66 1018.4
20260830141552 50 102 1.7 5.2 0.00 0.00 0.00 69 1018.4
20260830140049 48 119 2.6 4.3 0.00 0.00 0.00 72 1018.2
20260830134547 0 0.0 0.0 0.00 0.00 0.00 1018.1
20260830133046 0 0.0 0.0 0.00 0.00 0.00 1018.2
20260830131538 0 0.0 0.0 0.00 0.00 0.00 1018.1
20260830130033 0 0.0 0.0 0.00 0.00 0.00 1018.2
20260830124529 0 0.0 0.0 0.00 0.00 0.00 1018.1
20260830123025 0 0.0 0.0 0.00 0.00 0.00 1018.2
20260830121522 45 166 1.7 4.3 0.00 0.00 0.00 75 1018.1
20260830120023 46 129 1.7 4.3 0.00 0.00 0.00 73 1017.9
20260830114521 45 145 2.6 4.3 0.00 0.00 0.00 75 1018.0
20260830113019 45 121 3.5 5.2 0.00 0.00 0.00 76 1017.8
20260830111519 45 124 3.5 5.2 0.00 0.00 0.00 76 1017.8
20260830110019 46 132 4.3 6.1 0.00 0.00 0.00 76 1017.8
20260830104516 45 76 4.3 6.1 0.00 0.00 0.00 78 1017.8
20260830103012 46 86 3.5 6.1 0.00 0.00 0.00 75 1017.8
20260830101533 47 133 3.5 5.2 0.00 0.00 0.00 75 1017.8
20260830100010 46 109 2.6 5.2 0.00 0.00 0.00 76 1017.7
20260830094509 46 130 3.5 5.2 0.00 0.00 0.00 77 1017.7
20260830093009 47 114 3.5 5.2 0.00 0.00 0.00 75 1017.6
20260830091506 47 132 2.6 4.3 0.00 0.00 0.00 76 1017.5
20260830090013 47 124 2.6 4.3 0.00 0.00 0.00 76 1017.6
20260830084513 46 133 2.6 4.3 0.00 0.00 0.00 77 1017.6
20260830083005 47 125 2.6 5.2 0.00 0.00 0.00 75 1017.7
20260830081559 48 117 1.7 3.5 0.00 0.00 0.00 74 1017.7
20260830080100 48 124 0.9 3.5 0.00 0.00 0.00 74 1017.7
20260830074614 48 146 1.7 3.5 0.00 0.00 0.00 73 1017.5
20260830073051 49 204 2.6 5.2 0.00 0.00 0.00 72 1017.5
20260830071556 49 164 1.7 7.0 0.00 0.00 0.00 72 1017.5
20260830070048 49 192 2.6 5.2 0.00 0.00 0.00 72 1017.6
20260830064544 50 204 3.5 6.1 0.00 0.00 0.00 71 1017.5
20260830063042 50 204 2.6 6.1 0.00 0.00 0.00 70 1017.5
20260830061541 50 205 3.5 6.1 0.00 0.00 0.00 70 1017.4
20260830060040 50 224 3.5 6.1 0.00 0.00 0.00 69 1017.3
20260830054539 51 222 2.6 6.1 0.00 0.00 0.00 68 1017.5
20260830053038 51 226 4.3 7.0 0.00 0.00 0.00 67 1017.3
20260830051537 51 216 4.3 7.8 0.00 0.00 0.00 65 1017.3